Flag for U.S.A. Weather past 2 weeks in West Palm Beach, Florida, U.S.A.

Now
75 °F

Passing clouds.


Feels Like: 74 °F
Forecast: 73 / 81 °F
Wind: No wind

Location: Palm Beach International Airport

Current Time: Apr 21, 2015 at 1:32:57 AM

Latest Report: Apr 21, 2015 at 12:53 AM


Visibility: 10 mi

Pressure: 29.94 "Hg

Humidity: 90%

Dew point: 72 °F

Location of West Palm BeachLocation

Historic Weather in West Palm Beach — Graph

°F

West Palm Beach temperature yesterday

Maximum temperature yesterday: 88 °F (at 11:53 AM)
Minimum temperature yesterday: 72 °F (at 4:53 PM)
Average temperature yesterday: 78 °F

Past Weeks' High & Low Weather Summary

 TemperatureHumidityPressure
High92 °F (Apr 18, 2:53 PM)97% (Apr 20, 3:58 PM)30.27 "Hg (Apr 20, 3:58 PM)
Low70 °F (Apr 12, 6:01 AM)44% (Apr 18, 2:53 PM)29.87 "Hg (Apr 20, 2:53 PM)
Average80 °F72%30.07 "Hg
* Reported Apr 5 11:53 PM — Apr 20 11:53 PM, West Palm Beach, Weather by CustomWeather, © 2015

Note: Actual official high and low records may vary slightly from our data, if they occured in-between our weather recording intervals... More about our weather records

Advertising

West Palm Beach weather history for previous 24 hours

 ConditionsComfort  
Time TempWeatherWind HumidityBarometerVisibility
11:53 PM
Mon, Apr 20
75 °FPassing clouds.No wind94%29.96 "Hg10 mi
10:53 PM75 °FPartly cloudy.No wind94%29.95 "Hg10 mi
9:53 PM76 °FPartly cloudy.3 mph88%29.93 "Hg10 mi
8:53 PM77 °FPartly cloudy.No wind85%29.93 "Hg10 mi
7:53 PM75 °FBroken clouds.6 mph94%29.92 "Hg10 mi
6:53 PM75 °FCloudy.8 mph88%29.90 "Hg10 mi
5:53 PM75 °FThunderstorms. Cloudy.6 mph90%29.90 "Hg10 mi
4:53 PM72 °FStrong thunderstorms. Fog.15 mph93%29.88 "Hg2 mi
3:58 PM73 °FStrong thunderstorms. Fog.20 mph97%29.88 "Hg1 mi
2:53 PM82 °FThunderstorms. Broken clouds.18 mph74%29.87 "Hg7 mi
1:53 PM88 °FBroken clouds.18 mph61%29.88 "Hg10 mi
12:53 PM88 °FBroken clouds.14 mph55%29.93 "Hg10 mi
11:53 AM88 °FBroken clouds.13 mph57%29.93 "Hg10 mi
10:53 AM84 °FBroken clouds.9 mph65%29.96 "Hg10 mi
9:53 AM82 °FBroken clouds.9 mph72%29.95 "Hg10 mi
8:53 AM80 °FBroken clouds.7 mph81%29.94 "Hg10 mi
7:53 AM78 °FBroken clouds.5 mph87%29.93 "Hg10 mi
6:53 AM77 °FPassing clouds.5 mph88%29.93 "Hg10 mi
5:53 AM76 °FPassing clouds.5 mph88%29.92 "Hg10 mi
4:53 AM75 °FOvercast.5 mph90%29.91 "Hg10 mi
3:53 AM77 °FOvercast.5 mph85%29.90 "Hg10 mi
2:53 AM77 °FPassing clouds.5 mph85%29.90 "Hg10 mi
1:53 AM77 °FPartly cloudy.5 mph82%29.93 "Hg10 mi
Weather by CustomWeather, © 2015

See weather overviewHow to use our weather pages